Scottsboro, AL

2:10 PM CST on February 26, 2017 (GMT -0600)
Scottsboro

Weather History for K4A6 - November, 2012

Change the Weather History Date:

Wednesday, November 14, 2012

  Actual Average (KHSV) Record (KHSV)
Temperature  
Mean Temperature 42 °F -  
Max Temperature 53 °F 61 °F 83 °F (1955)
Min Temperature 32 °F 38 °F 18 °F (1911)
Degree Days  
Heating Degree Days 22    
Moisture  
Dew Point 33 °F    
Average Humidity 66    
Maximum Humidity 87    
Minimum Humidity 44    
Precipitation  
Precipitation 0.00 in - - ()
Sea Level Pressure  
Sea Level Pressure 30.33 in    
Wind  
Wind Speed - (North)    
Max Wind Speed -    
Max Gust Speed -    
Visibility 4 miles    
Events      
Averages and records for this station are not official NWS values.
T = Trace of Precipitation, MM = Missing Value Source: NWS Daily Summary

Daily Weather History Graph

Daily Weather History Graph

Search for Another Location

Airport or City:

Trip Planner

Search our weather history database for the weather conditions in past years. The results will help you decide how hot, cold, wet, or windy it might be!

Date:

Astronomy

Nov. 14, 2012 Rise Set
Actual Time 6:17 AM CST 4:39 PM CST
Civil Twilight 5:50 AM CST 5:06 PM CST
Nautical Twilight 5:20 AM CST 5:36 PM CST
Astronomical Twilight 4:50 AM CST 6:06 PM CST
Moon 7:03 AM CST (11/14) 5:29 PM CST (11/14)
Length of Visible Light 11h 15m
Length of Day
10h 21m
New Moon, 1% of the Moon is Illuminated
Nov 14
New Moon
Nov 20
First Quarter
Nov 28
Full
Dec 6
Last Quarter
Dec 13
New

Hourly Weather History & Observations

Time (CST) Temp. Dew Point Humidity Pressure Visibility Wind Dir Wind Speed Gust Speed Precip Events Conditions
12:15 AM 39.2 °F 28.4 °F 65% 30.35 in 4.0 mi North - - N/A   Haze
12:35 AM 39.2 °F 26.6 °F 61% 30.35 in 4.0 mi North - - N/A   Haze
12:55 AM 39.2 °F 26.6 °F 61% 30.35 in 4.0 mi North - - N/A   Haze
1:15 AM 37.4 °F 26.6 °F 65% 30.35 in 3.0 mi North - - N/A   Haze
1:35 AM 39.2 °F 28.4 °F 65% 30.35 in 4.0 mi North - - N/A   Haze
1:55 AM 39.2 °F 28.4 °F 65% 30.35 in 4.0 mi North - - N/A   Haze
2:15 AM 37.4 °F 28.4 °F 70% 30.35 in 3.0 mi North - - N/A   Haze
2:35 AM 37.4 °F 26.6 °F 65% 30.35 in 3.0 mi North - - N/A   Haze
2:55 AM 37.4 °F 28.4 °F 70% 30.35 in 3.0 mi North - - N/A   Haze
3:15 AM 37.4 °F 28.4 °F 70% 30.36 in 4.0 mi North - - N/A   Haze
3:55 AM 35.6 °F 28.4 °F 75% 30.36 in 4.0 mi North - - N/A   Haze
4:15 AM 35.6 °F 28.4 °F 75% 30.36 in 4.0 mi North - - N/A   Haze
4:35 AM 33.8 °F 28.4 °F 81% 30.36 in 4.0 mi North - - N/A   Haze
4:55 AM 33.8 °F 28.4 °F 81% 30.37 in 4.0 mi North - - N/A   Haze
5:15 AM 32.0 °F 28.4 °F 87% 30.37 in 4.0 mi North - - N/A   Clear
5:35 AM 32.0 °F 28.4 °F 87% 30.37 in 4.0 mi North - - N/A   Clear
5:55 AM 32.0 °F 28.4 °F 87% 30.37 in 4.0 mi North - - N/A   Clear
6:15 AM 32.0 °F 28.4 °F 87% 30.37 in 4.0 mi North - - N/A   Clear
6:55 AM 32.0 °F 28.4 °F 87% 30.39 in 3.0 mi North - - N/A   Clear
7:15 AM 33.8 °F 30.2 °F 87% 30.40 in 3.0 mi North - - N/A   Clear
7:35 AM 37.4 °F 28.4 °F 70% 30.40 in 3.0 mi North - - N/A   Haze
7:55 AM 39.2 °F 32.0 °F 75% 30.41 in 3.0 mi North - - N/A   Haze
8:15 AM 41.0 °F 32.0 °F 70% 30.40 in 3.0 mi North - - N/A   Haze
8:35 AM 41.0 °F 30.2 °F 65% 30.40 in 2.5 mi North - - N/A   Haze
8:55 AM 42.8 °F 30.2 °F 61% 30.40 in 2.5 mi North - - N/A   Haze
9:15 AM 44.6 °F 30.2 °F 57% 30.40 in 2.5 mi North - - N/A   Haze
9:35 AM 46.4 °F 30.2 °F 53% 30.40 in 2.5 mi North - - N/A   Haze
9:55 AM 46.4 °F 32.0 °F 57% 30.39 in 3.0 mi North - - N/A   Haze
10:15 AM 46.4 °F 32.0 °F 57% 30.38 in 2.5 mi North - - N/A   Haze
10:35 AM 48.2 °F 32.0 °F 54% 30.37 in 3.0 mi North - - N/A   Haze
10:55 AM 48.2 °F 32.0 °F 54% 30.37 in 3.0 mi North - - N/A   Haze
11:15 AM 50.0 °F 32.0 °F 50% 30.35 in 3.0 mi North - - N/A   Haze
11:35 AM 50.0 °F 32.0 °F 50% 30.34 in 3.0 mi North - - N/A   Haze
11:55 AM 51.8 °F 32.0 °F 47% 30.34 in 3.0 mi North - - N/A   Haze
12:15 PM 51.8 °F 32.0 °F 47% 30.32 in 3.0 mi North - - N/A   Haze
12:55 PM 53.6 °F 32.0 °F 44% 30.32 in 3.0 mi North - - N/A   Haze
1:15 PM 53.6 °F 32.0 °F 44% 30.31 in 3.0 mi North - - N/A   Haze
1:35 PM 53.6 °F 32.0 °F 44% 30.29 in 3.0 mi North - - N/A   Haze
1:55 PM 53.6 °F 32.0 °F 44% 30.28 in 3.0 mi North - - N/A   Haze
2:15 PM 53.6 °F 32.0 °F 44% 30.27 in 3.0 mi North - - N/A   Haze
2:35 PM 53.6 °F 32.0 °F 44% 30.28 in 3.0 mi North - - N/A   Haze
2:55 PM 53.6 °F 32.0 °F 44% 30.28 in 3.0 mi North - - N/A   Haze
3:35 PM 53.6 °F 32.0 °F 44% 30.29 in 3.0 mi North - - N/A   Haze
3:55 PM 53.6 °F 32.0 °F 44% 30.29 in 3.0 mi North - - N/A   Haze
4:15 PM 53.6 °F 33.8 °F 47% 30.29 in 3.0 mi North - - N/A   Haze
4:35 PM 53.6 °F 37.4 °F 54% 30.29 in 3.0 mi North - - N/A   Haze
4:55 PM 50.0 °F 35.6 °F 58% 30.29 in 5.0 mi North - - N/A   Haze
5:15 PM 48.2 °F 39.2 °F 71% 30.29 in 4.0 mi North - - N/A   Haze
5:35 PM 48.2 °F 39.2 °F 71% 30.29 in 5.0 mi North - - N/A   Haze
5:55 PM 46.4 °F 39.2 °F 76% 30.28 in 4.0 mi North - - N/A   Haze
6:15 PM 46.4 °F 37.4 °F 71% 30.30 in 5.0 mi North - - N/A   Haze
6:35 PM 46.4 °F 37.4 °F 71% 30.31 in 4.0 mi North - - N/A   Haze
6:55 PM 48.2 °F 37.4 °F 66% 30.30 in 4.0 mi North - - N/A   Haze
7:15 PM 46.4 °F 39.2 °F 76% 30.30 in 4.0 mi North - - N/A   Haze
7:35 PM 44.6 °F 39.2 °F 81% 30.30 in 4.0 mi North - - N/A   Haze
7:55 PM 44.6 °F 39.2 °F 81% 30.30 in 5.0 mi North - - N/A   Haze
8:15 PM 42.8 °F 37.4 °F 81% 30.31 in 4.0 mi North - - N/A   Haze
8:55 PM 41.0 °F 37.4 °F 87% 30.31 in 4.0 mi North - - N/A   Overcast
9:15 PM 42.8 °F 37.4 °F 81% 30.31 in 4.0 mi North - - N/A   Haze
9:35 PM 42.8 °F 37.4 °F 81% 30.30 in 4.0 mi North - - N/A   Haze
9:55 PM 44.6 °F 39.2 °F 81% 30.30 in 5.0 mi North - - N/A   Haze
10:15 PM 44.6 °F 37.4 °F 76% 30.29 in 5.0 mi North - - N/A   Haze
10:35 PM 44.6 °F 37.4 °F 76% 30.29 in 5.0 mi North - - N/A   Haze
10:55 PM 44.6 °F 37.4 °F 76% 30.29 in 4.0 mi North - - N/A   Haze
11:15 PM 44.6 °F 37.4 °F 76% 30.29 in 5.0 mi North - - N/A   Haze
11:35 PM 44.6 °F 39.2 °F 81% 30.29 in 4.0 mi North - - N/A   Haze
11:55 PM 44.6 °F 37.4 °F 76% 30.28 in 4.0 mi North - - N/A   Haze